QPF
0.02 0.03 0.03 0.03 0.03 0.04 0.05 0.03 0.02 0.03 0.02 0.02 0.02 0.03 0.03 0.03 0.04 0.03 0.03 0.02 0.01 0.01 0.01 0.01 0.01 0.01 0.01 0.01 0.01 0.02 0.01 0.01 0.01 0.00 0.00 0.00 0.01 0.01 0.02 0.04 0.06 0.08 0.07
0.03 0.04 0.04 0.03 0.02 0.02 0.02 0.02 0.01 0.01 0.01 0.01 0.01 0.01 0.02 0.03 0.03 0.03 0.03 0.03 0.02 0.01 0.00 0.00 0.01 0.01 0.01 0.00 0.00 0.00 0.01 0.01 0.01 0.00 0.00 0.00 0.01 0.01 0.02 0.04 0.05 0.07 0.08
0.04 0.04 0.04 0.03 0.02 0.02 0.01 0.01 0.01 0.01 0.01 0.02 0.01 0.01 0.02 0.03 0.04 0.03 0.03 0.03 0.02 0.02 0.01 0.01 0.01 0.01 0.01 0.01 0.01 0.01 0.01 0.01 0.01 0.01 0.01 0.00 0.01 0.02 0.02 0.03 0.04 0.05 0.07
0.03 0.04 0.04 0.03 0.02 0.02 0.02 0.01 0.02 0.03 0.02 0.02 0.02 0.02 0.03 0.03 0.03 0.04 0.04 0.04 0.03 0.03 0.02 0.01 0.01 0.01 0.02 0.02 0.01 0.01 0.01 0.01 0.01 0.01 0.01 0.01 0.01 0.02 0.03 0.02 0.03 0.04 0.04
0.03 0.03 0.03 0.03 0.03 0.02 0.02 0.03 0.03 0.02 0.03 0.03 0.03 0.02 0.02 0.02 0.03 0.04 0.04 0.04 0.04 0.03 0.03 0.02 0.02 0.02 0.03 0.04 0.04 0.03 0.02 0.01 0.01 0.01 0.01 0.01 0.01 0.02 0.03 0.03 0.03 0.03 0.03
0.02 0.02 0.03 0.03 0.02 0.02 0.02 0.03 0.05 0.03 0.02 0.03 0.03 0.02 0.03 0.03 0.03 0.03 0.03 0.03 0.03 0.04 0.03 0.03 0.02 0.02 0.03 0.05 0.05 0.03 0.03 0.02 0.01 0.01 0.01 0.01 0.01 0.02 0.03 0.03 0.03 0.02 0.02
0.01 0.01 0.03 0.03 0.02 0.01 0.02 0.04 0.07 0.05 0.03 0.03 0.02 0.02 0.02 0.02 0.03 0.03 0.03 0.03 0.03 0.03 0.03 0.04 0.03 0.03 0.02 0.02 0.02 0.02 0.02 0.03 0.03 0.02 0.02 0.01 0.02 0.02 0.03 0.03 0.02 0.02 0.02
0.02 0.01 0.01 0.02 0.02 0.01 0.01 0.03 0.05 0.05 0.05 0.04 0.03 0.01 0.02 0.03 0.03 0.03 0.03 0.03 0.04 0.03 0.03 0.03 0.04 0.04 0.03 0.02 0.02 0.01 0.01 0.01 0.02 0.03 0.03 0.02 0.02 0.03 0.04 0.03 0.02 0.02 0.02
0.01 0.01 0.01 0.02 0.02 0.02 0.01 0.02 0.03 0.04 0.05 0.04 0.04 0.03 0.01 0.01 0.01 0.02 0.02 0.02 0.02 0.03 0.03 0.03 0.04 0.04 0.04 0.02 0.01 0.01 0.01 0.01 0.02 0.03 0.04 0.03 0.04 0.05 0.05 0.04 0.03 0.02 0.02
0.01 0.01 0.01 0.02 0.02 0.01 0.01 0.01 0.01 0.02 0.04 0.03 0.03 0.03 0.03 0.02 0.01 0.01 0.01 0.01 0.01 0.02 0.03 0.04 0.05 0.04 0.04 0.03 0.02 0.01 0.01 0.01 0.00 0.01 0.03 0.04 0.05 0.06 0.05 0.04 0.03 0.03 0.02
0.01 0.00 0.01 0.01 0.02 0.01 0.01 0.01 0.01 0.01 0.02 0.03 0.04 0.03 0.03 0.02 0.01 0.01 0.01 0.01 0.01 0.01 0.02 0.03 0.04 0.05 0.04 0.03 0.02 0.01 0.00 0.00 0.00 0.00 0.01 0.03 0.05 0.06 0.05 0.04 0.04 0.03 0.02
0.02 0.01 0.01 0.01 0.02 0.02 0.02 0.02 0.02 0.02 0.02 0.04 0.04 0.04 0.02 0.02 0.02 0.01 0.01 0.01 0.01 0.01 0.02 0.03 0.03 0.04 0.04 0.04 0.03 0.02 0.01 0.00 0.00 0.00 0.01 0.02 0.03 0.05 0.05 0.04 0.04 0.03 0.02
0.02 0.01 0.01 0.01 0.02 0.03 0.03 0.03 0.02 0.02 0.03 0.05 0.05 0.04 0.03 0.02 0.01 0.01 0.01 0.01 0.02 0.02 0.02 0.03 0.03 0.03 0.03 0.03 0.03 0.03 0.02 0.01 0.00 0.01 0.01 0.02 0.02 0.03 0.04 0.03 0.04 0.03 0.02
0.02 0.01 0.02 0.02 0.02 0.03 0.04 0.03 0.03 0.02 0.02 0.02 0.03 0.04 0.05 0.04 0.02 0.01 0.01 0.01 0.02 0.03 0.03 0.03 0.03 0.03 0.04 0.03 0.02 0.03 0.02 0.02 0.01 0.01 0.01 0.02 0.02 0.02 0.02 0.02 0.02 0.02 0.02
0.02 0.02 0.02 0.02 0.02 0.03 0.04 0.03 0.02 0.02 0.02 0.01 0.02 0.02 0.03 0.04 0.04 0.04 0.03 0.02 0.02 0.02 0.03 0.03 0.03 0.04 0.04 0.04 0.03 0.03 0.03 0.03 0.02 0.01 0.02 0.02 0.02 0.03 0.02 0.01 0.01 0.01 0.02
0.03 0.02 0.02 0.01 0.01 0.02 0.02 0.02 0.02 0.02 0.03 0.02 0.02 0.02 0.01 0.02 0.03 0.03 0.03 0.02 0.02 0.02 0.03 0.03 0.03 0.03 0.03 0.03 0.04 0.04 0.04 0.03 0.03 0.02 0.03 0.03 0.03 0.03 0.03 0.02 0.02 0.02 0.02
0.02 0.02 0.02 0.02 0.01 0.01 0.02 0.02 0.02 0.02 0.02 0.02 0.02 0.02 0.01 0.01 0.02 0.03 0.02 0.02 0.02 0.02 0.03 0.03 0.03 0.03 0.03 0.03 0.04 0.04 0.04 0.04 0.03 0.04 0.04 0.03 0.03 0.03 0.03 0.02 0.02 0.02 0.02
0.02 0.02 0.02 0.02 0.01 0.01 0.01 0.02 0.01 0.01 0.01 0.01 0.02 0.02 0.02 0.02 0.03 0.03 0.03 0.02 0.03 0.03 0.02 0.02 0.02 0.03 0.03 0.04 0.05 0.06 0.06 0.06 0.06 0.05 0.05 0.04 0.03 0.02 0.02 0.01 0.02 0.02 0.02
0.01 0.02 0.02 0.01 0.01 0.01 0.01 0.01 0.01 0.01 0.01 0.01 0.01 0.02 0.03 0.03 0.04 0.04 0.04 0.03 0.02 0.02 0.02 0.01 0.02 0.02 0.03 0.04 0.05 0.05 0.06 0.06 0.06 0.07 0.07 0.06 0.04 0.03 0.01 0.01 0.01 0.02 0.02
0.01 0.02 0.02 0.02 0.02 0.01 0.01 0.02 0.02 0.02 0.01 0.01 0.01 0.02 0.02 0.03 0.04 0.04 0.04 0.03 0.02 0.01 0.01 0.01 0.01 0.02 0.02 0.03 0.04 0.05 0.05 0.04 0.05 0.05 0.05 0.06 0.06 0.05 0.03 0.02 0.01 0.01 0.01
0.01 0.02 0.03 0.02 0.02 0.03 0.02 0.02 0.02 0.02 0.02 0.01 0.01 0.02 0.02 0.02 0.02 0.02 0.03 0.03 0.02 0.01 0.01 0.01 0.02 0.02 0.02 0.02 0.03 0.03 0.04 0.04 0.04 0.04 0.04 0.04 0.04 0.04 0.04 0.03 0.03 0.03 0.02
0.02 0.02 0.03 0.03 0.03 0.03 0.03 0.02 0.03 0.03 0.02 0.02 0.01 0.02 0.03 0.02 0.02 0.02 0.02 0.02 0.01 0.01 0.01 0.02 0.02 0.02 0.02 0.02 0.02 0.02 0.03 0.03 0.03 0.02 0.03 0.03 0.03 0.03 0.03 0.03 0.03 0.03 0.03
0.03 0.03 0.03 0.03 0.03 0.03 0.03 0.03 0.03 0.03 0.03 0.02 0.02 0.02 0.02 0.01 0.01 0.01 0.01 0.01 0.01 0.01 0.02 0.02 0.02 0.02 0.02 0.03 0.03 0.03 0.02 0.02 0.02 0.02 0.02 0.02 0.02 0.03 0.03 0.02 0.02 0.03 0.02
0.05 0.04 0.03 0.03 0.04 0.03 0.03 0.04 0.04 0.04 0.04 0.04 0.03 0.02 0.02 0.01 0.01 0.01 0.01 0.01 0.01 0.01 0.01 0.02 0.02 0.02 0.02 0.02 0.03 0.03 0.02 0.02 0.03 0.03 0.02 0.02 0.02 0.02 0.02 0.02 0.02 0.02 0.02
0.05 0.06 0.05 0.05 0.05 0.04 0.04 0.04 0.04 0.05 0.05 0.05 0.05 0.03 0.03 0.02 0.02 0.02 0.02 0.02 0.02 0.02 0.01 0.01 0.02 0.02 0.02 0.02 0.02 0.03 0.03 0.03 0.03 0.03 0.03 0.03 0.02 0.02 0.02 0.02 0.02 0.02 0.03
0.04 0.04 0.05 0.06 0.06 0.06 0.05 0.05 0.05 0.05 0.04 0.04 0.05 0.05 0.04 0.03 0.03 0.02 0.03 0.03 0.02 0.02 0.02 0.02 0.02 0.02 0.02 0.02 0.03 0.04 0.04 0.04 0.04 0.03 0.03 0.03 0.02 0.02 0.02 0.02 0.02 0.02 0.03
MSLP
1001.03 1001.84 1002.84 1003.95 1005.08 1006.17 1007.19 1008.13 1009.01 1009.85 1010.70 1011.57 1012.47 1013.40 1014.35 1015.28 1016.18 1017.01 1017.76 1018.42 1018.99 1019.49 1019.94 1020.35 1020.75 1021.16 1021.60 1022.07 1022.58 1023.13 1023.70 1024.27 1024.84 1025.37 1025.86 1026.27 1026.60 1026.85 1027.02 1027.14 1027.20 1027.24 1027.27
1000.28 1001.05 1002.05 1003.17 1004.33 1005.48 1006.56 1007.57 1008.51 1009.40 1010.28 1011.16 1012.07 1013.01 1013.96 1014.90 1015.81 1016.67 1017.45 1018.13 1018.72 1019.23 1019.67 1020.07 1020.46 1020.85 1021.27 1021.74 1022.26 1022.83 1023.43 1024.06 1024.67 1025.26 1025.78 1026.23 1026.60 1026.87 1027.08 1027.21 1027.31 1027.37 1027.43
999.55 1000.31 1001.30 1002.44 1003.65 1004.84 1005.99 1007.05 1008.04 1008.98 1009.88 1010.77 1011.67 1012.59 1013.53 1014.47 1015.38 1016.25 1017.05 1017.76 1018.37 1018.90 1019.36 1019.77 1020.16 1020.55 1020.98 1021.45 1021.98 1022.57 1023.20 1023.85 1024.50 1025.11 1025.67 1026.14 1026.53 1026.83 1027.06 1027.22 1027.34 1027.44 1027.52
998.89 999.64 1000.63 1001.78 1003.02 1004.26 1005.45 1006.57 1007.61 1008.57 1009.49 1010.37 1011.26 1012.16 1013.07 1013.99 1014.89 1015.76 1016.58 1017.31 1017.96 1018.52 1019.01 1019.45 1019.85 1020.26 1020.70 1021.18 1021.72 1022.31 1022.95 1023.61 1024.27 1024.89 1025.46 1025.94 1026.35 1026.68 1026.93 1027.12 1027.28 1027.42 1027.54
998.33 999.05 1000.03 1001.19 1002.44 1003.71 1004.95 1006.11 1007.18 1008.17 1009.09 1009.97 1010.84 1011.71 1012.60 1013.49 1014.38 1015.24 1016.06 1016.82 1017.50 1018.09 1018.62 1019.09 1019.52 1019.95 1020.40 1020.88 1021.42 1022.01 1022.63 1023.28 1023.93 1024.55 1025.11 1025.61 1026.03 1026.38 1026.66 1026.90 1027.10 1027.28 1027.44
997.90 998.57 999.52 1000.66 1001.91 1003.19 1004.44 1005.63 1006.73 1007.74 1008.68 1009.56 1010.41 1011.25 1012.11 1012.97 1013.84 1014.69 1015.52 1016.29 1016.99 1017.63 1018.19 1018.69 1019.16 1019.60 1020.06 1020.54 1021.06 1021.62 1022.22 1022.84 1023.47 1024.07 1024.62 1025.13 1025.56 1025.94 1026.26 1026.55 1026.80 1027.03 1027.25
997.60 998.21 999.09 1000.18 1001.40 1002.67 1003.93 1005.13 1006.26 1007.29 1008.24 1009.12 1009.96 1010.79 1011.62 1012.46 1013.30 1014.14 1014.96 1015.74 1016.46 1017.12 1017.72 1018.25 1018.74 1019.20 1019.65 1020.12 1020.62 1021.16 1021.72 1022.31 1022.90 1023.48 1024.03 1024.54 1025.00 1025.41 1025.78 1026.11 1026.42 1026.71 1026.97
997.45 997.97 998.76 999.77 1000.93 1002.16 1003.41 1004.62 1005.75 1006.81 1007.77 1008.67 1009.52 1010.34 1011.15 1011.96 1012.78 1013.60 1014.41 1015.19 1015.92 1016.60 1017.22 1017.77 1018.28 1018.75 1019.21 1019.67 1020.14 1020.64 1021.17 1021.72 1022.29 1022.85 1023.40 1023.92 1024.41 1024.86 1025.28 1025.67 1026.03 1026.36 1026.67
997.45 997.84 998.51 999.42 1000.49 1001.67 1002.88 1004.08 1005.23 1006.31 1007.30 1008.22 1009.08 1009.89 1010.69 1011.49 1012.28 1013.08 1013.87 1014.64 1015.38 1016.07 1016.70 1017.28 1017.81 1018.29 1018.76 1019.21 1019.67 1020.14 1020.64 1021.17 1021.71 1022.27 1022.82 1023.36 1023.88 1024.37 1024.84 1025.27 1025.68 1026.06 1026.40
997.58 997.83 998.36 999.14 1000.11 1001.21 1002.38 1003.56 1004.71 1005.81 1006.83 1007.77 1008.65 1009.47 1010.27 1011.05 1011.82 1012.59 1013.36 1014.12 1014.85 1015.55 1016.20 1016.80 1017.35 1017.86 1018.34 1018.80 1019.25 1019.72 1020.21 1020.73 1021.26 1021.82 1022.38 1022.94 1023.48 1024.01 1024.52 1024.99 1025.43 1025.83 1026.18
997.82 997.92 998.30 998.93 999.78 1000.79 1001.90 1003.06 1004.21 1005.32 1006.37 1007.34 1008.24 1009.08 1009.87 1010.64 1011.40 1012.15 1012.90 1013.64 1014.37 1015.07 1015.74 1016.36 1016.94 1017.48 1017.99 1018.47 1018.95 1019.43 1019.92 1020.44 1020.98 1021.54 1022.11 1022.69 1023.26 1023.81 1024.34 1024.83 1025.28 1025.69 1026.04
998.15 998.09 998.31 998.80 999.52 1000.43 1001.47 1002.59 1003.73 1004.85 1005.92 1006.92 1007.85 1008.70 1009.50 1010.27 1011.01 1011.74 1012.47 1013.20 1013.92 1014.63 1015.32 1015.97 1016.59 1017.17 1017.72 1018.24 1018.75 1019.26 1019.77 1020.31 1020.86 1021.43 1022.01 1022.60 1023.18 1023.74 1024.28 1024.77 1025.22 1025.61 1025.95
998.54 998.34 998.40 998.74 999.33 1000.13 1001.09 1002.15 1003.27 1004.40 1005.48 1006.51 1007.46 1008.34 1009.15 1009.91 1010.65 1011.37 1012.08 1012.80 1013.52 1014.24 1014.95 1015.63 1016.29 1016.92 1017.51 1018.08 1018.63 1019.18 1019.72 1020.27 1020.84 1021.42 1022.01 1022.61 1023.19 1023.75 1024.28 1024.77 1025.20 1025.57 1025.88
998.98 998.63 998.55 998.74 999.19 999.88 1000.76 1001.76 1002.85 1003.96 1005.05 1006.09 1007.07 1007.96 1008.79 1009.56 1010.30 1011.01 1011.72 1012.43 1013.15 1013.87 1014.60 1015.31 1016.00 1016.67 1017.31 1017.93 1018.52 1019.11 1019.68 1020.26 1020.84 1021.43 1022.03 1022.62 1023.20 1023.76 1024.27 1024.74 1025.15 1025.50 1025.78
999.43 998.96 998.74 998.80 999.13 999.71 1000.49 1001.42 1002.46 1003.55 1004.63 1005.68 1006.67 1007.58 1008.42 1009.21 1009.95 1010.66 1011.37 1012.07 1012.79 1013.52 1014.25 1014.97 1015.69 1016.39 1017.07 1017.72 1018.35 1018.96 1019.56 1020.16 1020.76 1021.36 1021.96 1022.56 1023.13 1023.68 1024.18 1024.64 1025.03 1025.37 1025.64
999.90 999.33 999.00 998.94 999.15 999.62 1000.30 1001.16 1002.13 1003.17 1004.24 1005.28 1006.27 1007.20 1008.05 1008.85 1009.60 1010.32 1011.02 1011.72 1012.43 1013.15 1013.87 1014.60 1015.32 1016.03 1016.72 1017.38 1018.03 1018.67 1019.29 1019.91 1020.52 1021.13 1021.74 1022.33 1022.91 1023.46 1023.96 1024.42 1024.82 1025.15 1025.43
1000.41 999.77 999.36 999.19 999.30 999.66 1000.24 1001.00 1001.89 1002.88 1003.90 1004.91 1005.90 1006.82 1007.69 1008.50 1009.26 1009.98 1010.68 1011.37 1012.06 1012.76 1013.46 1014.16 1014.87 1015.56 1016.24 1016.91 1017.56 1018.20 1018.83 1019.46 1020.09 1020.71 1021.33 1021.94 1022.53 1023.09 1023.61 1024.08 1024.50 1024.85 1025.15
1000.99 1000.31 999.83 999.59 999.61 999.86 1000.33 1000.99 1001.79 1002.69 1003.65 1004.62 1005.58 1006.49 1007.36 1008.17 1008.93 1009.66 1010.35 1011.03 1011.69 1012.36 1013.02 1013.68 1014.35 1015.00 1015.66 1016.30 1016.94 1017.58 1018.22 1018.85 1019.49 1020.13 1020.77 1021.40 1022.01 1022.59 1023.14 1023.64 1024.09 1024.49 1024.83
1001.68 1000.99 1000.48 1000.18 1000.11 1000.27 1000.63 1001.17 1001.86 1002.66 1003.53 1004.43 1005.34 1006.23 1007.08 1007.88 1008.64 1009.36 1010.04 1010.70 1011.33 1011.96 1012.57 1013.18 1013.79 1014.40 1015.01 1015.63 1016.24 1016.87 1017.50 1018.14 1018.79 1019.45 1020.11 1020.76 1021.40 1022.01 1022.59 1023.14 1023.63 1024.07 1024.46
1002.51 1001.84 1001.32 1000.98 1000.84 1000.89 1001.14 1001.55 1002.11 1002.79 1003.55 1004.36 1005.20 1006.04 1006.85 1007.64 1008.38 1009.09 1009.75 1010.39 1010.99 1011.57 1012.14 1012.70 1013.25 1013.81 1014.37 1014.95 1015.54 1016.14 1016.77 1017.41 1018.07 1018.75 1019.43 1020.10 1020.76 1021.40 1022.02 1022.59 1023.13 1023.62 1024.06
1003.49 1002.86 1002.35 1001.98 1001.76 1001.72 1001.84 1002.12 1002.53 1003.07 1003.70 1004.40 1005.14 1005.90 1006.67 1007.42 1008.14 1008.83 1009.48 1010.09 1010.67 1011.21 1011.74 1012.25 1012.76 1013.27 1013.79 1014.33 1014.89 1015.48 1016.10 1016.75 1017.41 1018.09 1018.78 1019.47 1020.15 1020.80 1021.43 1022.03 1022.59 1023.12 1023.61
1004.59 1004.01 1003.51 1003.11 1002.83 1002.69 1002.68 1002.81 1003.07 1003.45 1003.93 1004.50 1005.13 1005.81 1006.50 1007.20 1007.89 1008.56 1009.19 1009.78 1010.34 1010.87 1011.37 1011.85 1012.33 1012.81 1013.30 1013.82 1014.36 1014.94 1015.55 1016.19 1016.85 1017.53 1018.22 1018.90 1019.57 1020.23 1020.86 1021.46 1022.03 1022.58 1023.09
1005.74 1005.21 1004.72 1004.30 1003.95 1003.71 1003.58 1003.56 1003.66 1003.88 1004.20 1004.63 1005.13 1005.70 1006.32 1006.96 1007.60 1008.24 1008.85 1009.44 1009.99 1010.51 1011.00 1011.48 1011.94 1012.41 1012.90 1013.40 1013.94 1014.51 1015.11 1015.74 1016.39 1017.06 1017.73 1018.40 1019.05 1019.68 1020.29 1020.87 1021.43 1021.98 1022.50
1006.85 1006.36 1005.88 1005.43 1005.02 1004.69 1004.44 1004.28 1004.23 1004.28 1004.45 1004.73 1005.11 1005.56 1006.09 1006.65 1007.25 1007.85 1008.44 1009.02 1009.58 1010.10 1010.61 1011.10 1011.57 1012.05 1012.55 1013.06 1013.60 1014.16 1014.76 1015.38 1016.02 1016.66 1017.30 1017.94 1018.55 1019.15 1019.72 1020.27 1020.80 1021.33 1021.85
1007.83 1007.36 1006.88 1006.41 1005.95 1005.54 1005.18 1004.90 1004.71 1004.63 1004.65 1004.79 1005.04 1005.38 1005.80 1006.29 1006.83 1007.39 1007.97 1008.54 1009.09 1009.64 1010.16 1010.67 1011.17 1011.68 1012.19 1012.72 1013.27 1013.84 1014.44 1015.05 1015.66 1016.28 1016.89 1017.48 1018.06 1018.61 1019.14 1019.65 1020.16 1020.66 1021.16
1008.59 1008.15 1007.68 1007.19 1006.69 1006.22 1005.78 1005.41 1005.11 1004.91 1004.81 1004.82 1004.95 1005.18 1005.51 1005.91 1006.38 1006.89 1007.43 1007.99 1008.54 1009.10 1009.64 1010.18 1010.72 1011.25 1011.79 1012.34 1012.91 1013.49 1014.08 1014.68 1015.28 1015.87 1016.45 1017.01 1017.54 1018.06 1018.56 1019.04 1019.51 1019.99 1020.47
Thickness
5669 5667 5666 5665 5663 5661 5659 5657 5655 5653 5651 5649 5647 5645 5643 5640 5639 5637 5635 5633 5631 5629 5627 5625 5623 5622 5620 5618 5616 5614 5613 5611 5608 5608 5609 5612 5614 5617 5618 5620 5621 5623 5624
5665 5663 5662 5660 5658 5656 5655 5653 5651 5649 5647 5645 5643 5641 5638 5636 5634 5632 5630 5628 5626 5624 5622 5621 5619 5618 5615 5614 5612 5610 5609 5608 5606 5604 5605 5607 5609 5611 5613 5614 5615 5616 5617
5660 5658 5656 5655 5653 5651 5650 5648 5647 5645 5642 5640 5638 5636 5634 5632 5630 5628 5626 5624 5622 5620 5619 5617 5615 5613 5611 5609 5608 5607 5605 5605 5603 5601 5601 5601 5603 5605 5606 5608 5609 5610 5612
5655 5653 5651 5650 5648 5647 5645 5643 5642 5640 5638 5635 5633 5631 5629 5628 5626 5624 5622 5619 5618 5616 5614 5613 5611 5610 5609 5607 5605 5603 5602 5600 5599 5597 5596 5596 5597 5599 5600 5601 5602 5604 5605
5650 5648 5646 5645 5643 5641 5640 5638 5636 5634 5633 5630 5628 5626 5624 5623 5621 5619 5617 5615 5613 5611 5610 5609 5608 5607 5607 5605 5604 5601 5599 5596 5594 5592 5592 5592 5592 5593 5595 5595 5596 5597 5598
5644 5643 5641 5639 5637 5635 5634 5632 5630 5628 5626 5624 5622 5620 5619 5619 5618 5616 5614 5611 5608 5606 5604 5603 5603 5603 5602 5602 5601 5600 5598 5594 5591 5589 5588 5588 5589 5589 5590 5590 5590 5590 5591
5638 5637 5635 5634 5631 5630 5629 5626 5624 5622 5620 5618 5617 5615 5613 5613 5613 5612 5610 5607 5604 5601 5600 5599 5599 5599 5598 5596 5596 5595 5594 5593 5592 5589 5586 5586 5586 5587 5586 5585 5585 5584 5585
5631 5630 5629 5627 5626 5624 5622 5620 5618 5617 5614 5613 5611 5610 5608 5608 5608 5607 5605 5602 5599 5597 5596 5595 5594 5593 5593 5592 5590 5589 5588 5587 5587 5585 5584 5584 5584 5584 5584 5583 5582 5580 5579
5625 5623 5623 5621 5619 5617 5616 5614 5613 5611 5609 5607 5605 5604 5602 5602 5603 5602 5600 5596 5594 5592 5591 5590 5589 5589 5589 5588 5586 5583 5582 5581 5581 5581 5580 5580 5580 5580 5579 5578 5576 5574 5574
5620 5619 5618 5616 5614 5612 5610 5609 5607 5605 5604 5602 5600 5598 5597 5596 5597 5596 5595 5592 5589 5587 5586 5586 5585 5585 5584 5583 5581 5579 5577 5576 5575 5574 5574 5574 5574 5574 5574 5573 5572 5570 5568
5616 5614 5612 5610 5608 5606 5605 5603 5601 5599 5597 5595 5593 5592 5591 5591 5591 5591 5589 5587 5585 5583 5581 5581 5580 5580 5579 5578 5577 5575 5574 5572 5569 5568 5567 5566 5566 5566 5567 5566 5566 5565 5563
5609 5607 5605 5604 5602 5601 5598 5596 5594 5592 5590 5588 5587 5585 5585 5585 5585 5585 5584 5583 5582 5579 5578 5577 5576 5575 5574 5573 5571 5570 5569 5566 5563 5561 5559 5559 5559 5559 5560 5560 5560 5559 5559
5601 5599 5598 5597 5595 5593 5591 5589 5587 5586 5584 5582 5580 5579 5579 5578 5578 5578 5578 5577 5576 5574 5573 5572 5570 5569 5568 5566 5565 5564 5561 5558 5556 5554 5553 5553 5553 5553 5553 5553 5553 5552 5552
5593 5592 5590 5589 5587 5585 5584 5582 5580 5579 5577 5576 5574 5573 5572 5571 5570 5570 5570 5569 5568 5566 5565 5564 5563 5561 5560 5558 5557 5555 5553 5551 5550 5549 5548 5547 5546 5546 5545 5545 5545 5545 5544
5586 5585 5583 5582 5580 5578 5576 5575 5574 5574 5573 5571 5569 5567 5565 5564 5566 5566 5563 5562 5561 5559 5558 5555 5553 5551 5550 5549 5548 5547 5545 5544 5543 5542 5541 5540 5539 5539 5538 5538 5537 5537 5537
5578 5577 5576 5575 5572 5570 5568 5566 5566 5566 5566 5565 5564 5561 5560 5560 5559 5558 5557 5556 5555 5553 5550 5547 5545 5544 5543 5541 5540 5539 5538 5537 5537 5536 5535 5534 5533 5532 5531 5530 5530 5530 5530
5572 5571 5569 5568 5566 5563 5561 5559 5557 5556 5556 5555 5555 5554 5553 5552 5551 5549 5548 5547 5546 5544 5541 5539 5538 5536 5535 5534 5533 5532 5531 5530 5530 5529 5528 5527 5526 5525 5524 5523 5523 5522 5522
5564 5564 5562 5560 5558 5556 5554 5553 5551 5549 5547 5545 5545 5545 5544 5543 5541 5540 5538 5536 5534 5533 5531 5530 5530 5529 5527 5526 5525 5524 5523 5522 5521 5520 5520 5520 5519 5518 5517 5516 5516 5515 5515
5556 5555 5554 5552 5551 5549 5547 5545 5543 5542 5540 5538 5536 5535 5535 5533 5532 5530 5528 5526 5525 5523 5522 5522 5521 5521 5520 5519 5517 5516 5515 5514 5512 5512 5512 5512 5512 5511 5510 5510 5509 5509 5509
5548 5549 5547 5545 5543 5541 5539 5537 5536 5534 5532 5530 5529 5527 5525 5523 5521 5519 5518 5517 5516 5515 5514 5514 5513 5513 5512 5510 5509 5508 5506 5506 5505 5504 5504 5504 5503 5503 5503 5503 5502 5502 5502
5540 5539 5540 5537 5535 5534 5533 5531 5529 5527 5525 5523 5522 5520 5518 5516 5514 5511 5510 5508 5508 5507 5506 5506 5505 5504 5503 5502 5501 5499 5499 5498 5497 5497 5496 5496 5495 5495 5496 5496 5496 5496 5495
5532 5531 5531 5529 5528 5527 5526 5525 5523 5520 5519 5516 5514 5511 5510 5507 5505 5503 5502 5501 5500 5499 5498 5498 5497 5496 5495 5494 5493 5492 5491 5490 5490 5489 5489 5489 5488 5488 5488 5488 5489 5489 5488
5524 5523 5522 5521 5520 5519 5518 5517 5515 5513 5511 5509 5507 5504 5502 5500 5498 5496 5494 5493 5492 5491 5490 5489 5489 5488 5487 5487 5486 5485 5484 5484 5484 5484 5483 5482 5482 5482 5481 5482 5482 5482 5481
5516 5514 5513 5512 5510 5509 5509 5508 5507 5505 5503 5501 5499 5497 5495 5493 5491 5489 5487 5485 5484 5483 5482 5481 5481 5481 5480 5479 5478 5478 5477 5477 5477 5477 5477 5476 5476 5475 5475 5475 5475 5476 5475
5507 5505 5504 5503 5502 5501 5500 5499 5498 5497 5495 5494 5492 5489 5487 5485 5483 5482 5480 5478 5476 5475 5474 5474 5474 5473 5472 5472 5471 5471 5471 5470 5470 5470 5470 5469 5469 5469 5469 5469 5469 5469 5468
5498 5497 5495 5494 5493 5492 5491 5490 5489 5487 5486 5486 5484 5482 5480 5478 5476 5474 5472 5471 5469 5469 5468 5467 5467 5466 5465 5465 5465 5464 5464 5464 5464 5463 5463 5463 5463 5463 5462 5462 5462 5462 5461